Location: Newark
(21.1200°N, 73.4000°E)
Time: 01:09:45
(UTC+00:00)

Explorer 11/Cluster Stage 4 - Pass Details

Date: 21 January 2020
Orbit: 467 x 1259 km, 28.8° (Epoch: 19 February)

Event Time Altitude Azimuth Distance (km) Brightness Sun altitude
Rises 12:47:09 0° 282° (WNW) 3,883 11.2 -0.4°
Reaches altitude 10° 12:50:21 10° 290° (WNW) 2,803 10.3 -1.1°
Maximum altitude 12:56:38 40° 358° (N) 1,271 7.6 -2.5°
Drops below altitude 10° 13:01:44 10° 67° (ENE) 2,264 8.3 -3.6°
Enters shadow 13:03:00 - 72° (ENE) 2,690 8.6 -3.8°
Sets 13:04:04 0° 75° (ENE) 3,065 - -4.1°
